| time (UTC) | temp F | wind direction | speed MPH | gust MPH | rain 1hr in | rain 24hr in | rain mn in | humidity % | barometer mb |
| 20260505230027 | 61 | 129 | 0.0 | 1.0 | 0.10 | 0.22 | 0.22 | 93 | 1007.0 |
| 20260505224530 | 62 | 23 | 0.0 | 0.0 | 0.06 | 0.18 | 0.18 | 93 | 1007.5 |
| 20260505223025 | 63 | 22 | 0.0 | 0.0 | 0.03 | 0.15 | 0.15 | 93 | 1007.2 |
| 20260505221525 | 63 | 22 | 0.0 | 0.0 | 0.00 | 0.12 | 0.12 | 93 | 1006.9 |
| 20260505220023 | 62 | 22 | 0.0 | 0.0 | 0.00 | 0.12 | 0.12 | 93 | 1007.0 |
| 20260505214524 | 62 | 22 | 0.0 | 0.0 | 0.00 | 0.12 | 0.12 | 93 | 1007.1 |
| 20260505213019 | 62 | 22 | 0.0 | 0.0 | 0.00 | 0.12 | 0.12 | 93 | 1007.6 |
| 20260505211519 | 62 | 22 | 0.0 | 0.0 | 0.00 | 0.12 | 0.12 | 93 | 1007.7 |
| 20260505210021 | 62 | 22 | 0.0 | 0.0 | 0.00 | 0.12 | 0.12 | 93 | 1007.8 |
| 20260505204524 | 62 | 22 | 0.0 | 0.0 | 0.02 | 0.12 | 0.12 | 93 | 1008.1 |
| 20260505203018 | 62 | 22 | 0.0 | 0.0 | 0.04 | 0.12 | 0.12 | 93 | 1008.2 |
| 20260505201522 | 62 | 22 | 0.0 | 0.0 | 0.06 | 0.12 | 0.12 | 92 | 1008.5 |
| 20260505200023 | 62 | 22 | 0.0 | 0.0 | 0.10 | 0.12 | 0.12 | 92 | 1008.6 |
| 20260505194516 | 62 | 22 | 0.0 | 0.0 | 0.10 | 0.10 | 0.10 | 92 | 1008.8 |
| 20260505193015 | 62 | 22 | 0.0 | 0.0 | 0.08 | 0.08 | 0.08 | 91 | 1009.0 |
| 20260505191517 | 62 | 20 | 0.0 | 0.0 | 0.06 | 0.06 | 0.06 | 91 | 1009.4 |
| 20260505190011 | 63 | 22 | 0.0 | 1.0 | 0.02 | 0.02 | 0.02 | 88 | 1009.0 |
| 20260505184521 | 65 | 6 | 0.0 | 1.0 | 0.00 | 0.00 | 0.00 | 83 | 1009.3 |
| 20260505183031 | 68 | 82 | 0.0 | 3.0 | 0.00 | 0.00 | 0.00 | 76 | 1009.3 |
| 20260505181512 | 69 | 248 | 1.0 | 6.0 | 0.00 | 0.00 | 0.00 | 71 | 1009.0 |
| 20260505180008 | 70 | 220 | 0.0 | 11.0 | 0.00 | 0.00 | 0.00 | 70 | 1008.9 |
| 20260505174510 | 70 | 202 | 1.0 | 7.0 | 0.00 | 0.00 | 0.00 | 70 | 1008.9 |
| 20260505173008 | 69 | 207 | 1.0 | 5.0 | 0.00 | 0.00 | 0.00 | 71 | 1009.0 |
| 20260505171600 | 68 | 163 | 0.0 | 3.0 | 0.00 | 0.00 | 0.00 | 73 | 1009.6 |
| 20260505170201 | 67 | 225 | 1.0 | 5.0 | 0.00 | 0.00 | 0.00 | 73 | 1009.6 |
| 20260505164627 | 67 | 219 | 1.0 | 5.0 | 0.00 | 0.00 | 0.00 | 72 | 1009.8 |
| 20260505163056 | 67 | 111 | 0.0 | 9.0 | 0.00 | 0.00 | 0.00 | 72 | 1010.1 |
| 20260505161558 | 67 | 239 | 1.0 | 6.0 | 0.00 | 0.00 | 0.00 | 72 | 1010.1 |
| 20260505153050 | 65 | 128 | 1.0 | 6.0 | 0.00 | 0.00 | 0.00 | 74 | 1010.1 |
| 20260505151546 | 65 | 243 | 0.0 | 6.0 | 0.00 | 0.00 | 0.00 | 74 | 1009.9 |
| 20260505124538 | 60 | 201 | 0.0 | 1.0 | 0.00 | 0.02 | 0.00 | 85 | 1010.1 |
| 20260505123035 | 60 | 156 | 0.0 | 0.0 | 0.00 | 0.02 | 0.00 | 85 | 1010.4 |
| 20260505121536 | 60 | 27 | 0.0 | 0.0 | 0.00 | 0.02 | 0.00 | 85 | 1010.4 |
| 20260505120041 | 60 | 4 | 0.0 | 0.0 | 0.00 | 0.02 | 0.00 | 85 | 1010.2 |
| 20260505114533 | 60 | 4 | 0.0 | 0.0 | 0.00 | 0.02 | 0.00 | 84 | 1010.0 |
| 20260505113033 | 60 | 3 | 0.0 | 0.0 | 0.00 | 0.02 | 0.00 | 84 | 1010.0 |
| 20260505111530 | 60 | 4 | 0.0 | 0.0 | 0.00 | 0.02 | 0.00 | 83 | 1010.1 |
| 20260505101528 | 61 | 287 | 0.0 | 1.0 | 0.00 | 0.02 | 0.00 | 75 | 1010.3 |
| 20260505100024 | 61 | 44 | 0.0 | 1.0 | 0.00 | 0.02 | 0.00 | 74 | 1010.2 |
| 20260505094526 | 61 | 104 | 0.0 | 0.0 | 0.00 | 0.10 | 0.00 | 76 | 1009.2 |
| 20260505093018 | 61 | 151 | 0.0 | 5.0 | 0.00 | 0.10 | 0.00 | 74 | 1008.7 |
| 20260505091517 | 61 | 143 | 0.0 | 1.0 | 0.00 | 0.10 | 0.00 | 74 | 1008.6 |
| 20260505090014 | 62 | 46 | 0.0 | 1.0 | 0.00 | 0.10 | 0.00 | 73 | 1008.5 |
| 20260505084517 | 62 | 79 | 0.0 | 2.0 | 0.00 | 0.10 | 0.00 | 71 | 1008.4 |
| 20260505083014 | 62 | 249 | 0.0 | 1.0 | 0.00 | 0.10 | 0.00 | 73 | 1008.2 |
| 20260505081511 | 62 | 246 | 0.0 | 6.0 | 0.00 | 0.10 | 0.00 | 72 | 1008.1 |
| 20260505080009 | 62 | 241 | 0.0 | 1.0 | 0.00 | 0.10 | 0.00 | 73 | 1008.0 |
| 20260505074509 | 62 | 121 | 0.0 | 1.0 | 0.00 | 0.10 | 0.00 | 73 | 1007.9 |
| 20260505073009 | 62 | 46 | 0.0 | 4.0 | 0.00 | 0.10 | 0.00 | 72 | 1007.9 |
| 20260505071508 | 62 | 160 | 0.0 | 4.0 | 0.00 | 0.10 | 0.00 | 74 | 1007.9 |
| 20260505070008 | 62 | 166 | 0.0 | 5.0 | 0.00 | 0.10 | 0.00 | 72 | 1007.7 |
| 20260505064506 | 62 | 121 | 0.0 | 2.0 | 0.00 | 0.10 | 0.00 | 72 | 1007.7 |
| 20260505063008 | 62 | 106 | 0.0 | 3.0 | 0.00 | 0.10 | 0.00 | 75 | 1007.7 |
| 20260505061504 | 62 | 190 | 0.0 | 1.0 | 0.00 | 0.10 | 0.00 | 75 | 1007.8 |
| 20260505060002 | 62 | 246 | 0.0 | 3.0 | 0.00 | 0.10 | 0.00 | 77 | 1007.7 |
| 20260505054502 | 61 | 143 | 0.0 | 1.0 | 0.00 | 0.10 | 0.00 | 76 | 1007.8 |
| 20260505053001 | 61 | 104 | 0.0 | 2.0 | 0.00 | 0.10 | 0.00 | 79 | 1007.8 |
| 20260505051600 | 60 | 143 | 0.0 | 1.0 | 0.00 | 0.10 | 0.00 | 79 | 1007.5 |
| 20260505041556 | 62 | 267 | 0.0 | 1.0 | 0.00 | 0.10 | 0.00 | 77 | 1008.0 |
| 20260505040053 | 62 | 236 | 0.0 | 1.0 | 0.00 | 0.10 | 0.00 | 78 | 1008.0 |
| 20260505034547 | 61 | 258 | 0.0 | 1.0 | 0.00 | 0.10 | 0.10 | 79 | 1008.1 |
| 20260505033047 | 61 | 133 | 0.0 | 1.0 | 0.00 | 0.10 | 0.10 | 80 | 1008.0 |
| 20260505031554 | 61 | 301 | 0.0 | 0.0 | 0.00 | 0.10 | 0.10 | 81 | 1007.8 |
| 20260505030045 | 61 | 273 | 0.0 | 0.0 | 0.00 | 0.10 | 0.10 | 82 | 1007.6 |
| 20260505024556 | 62 | 269 | 0.0 | 0.0 | 0.00 | 0.10 | 0.10 | 81 | 1007.4 |
| 20260505023044 | 62 | 268 | 0.0 | 3.0 | 0.00 | 0.10 | 0.10 | 80 | 1007.1 |
| 20260505021547 | 62 | 145 | 0.0 | 0.0 | 0.00 | 0.10 | 0.10 | 79 | 1006.9 |
| 20260505020044 | 63 | 145 | 0.0 | 0.0 | 0.00 | 0.10 | 0.10 | 78 | 1006.7 |
| 20260505014601 | 63 | 144 | 0.0 | 0.0 | 0.00 | 0.10 | 0.10 | 77 | 1006.2 |
| 20260505013042 | 64 | 143 | 0.0 | 1.0 | 0.00 | 0.10 | 0.10 | 76 | 1006.0 |
| 20260505011553 | 65 | 238 | 0.0 | 0.0 | 0.00 | 0.10 | 0.10 | 74 | 1006.0 |
| 20260505010041 | 67 | 236 | 0.0 | 0.0 | 0.00 | 0.10 | 0.10 | 72 | 1006.1 |
| 20260505004543 | 68 | 236 | 0.0 | 0.0 | 0.00 | 0.10 | 0.10 | 70 | 1006.1 |
| 20260505003040 | 69 | 156 | 0.0 | 3.0 | 0.00 | 0.10 | 0.10 | 66 | 1006.2 |
| 20260505001540 | 70 | 231 | 0.0 | 0.0 | 0.00 | 0.10 | 0.10 | 66 | 1006.2 |
| 20260505000051 | 71 | 228 | 0.0 | 2.0 | 0.00 | 0.10 | 0.10 | 63 | 1006.2 |
| 20260504234546 | 72 | 134 | 0.0 | 1.0 | 0.00 | 0.10 | 0.10 | 60 | 1006.2 |
| 20260504233052 | 73 | 127 | 0.0 | 1.0 | 0.00 | 0.10 | 0.10 | 59 | 1006.5 |
| 20260504231537 | 74 | 127 | 0.0 | 5.0 | 0.00 | 0.10 | 0.10 | 55 | 1006.9 |